This is the latest recevied weather packets stored in our database for station/object KJ4EBE. If no packets are shown the sender has not sent any weather packets the latest 10 day(s).
| Time | Temp. | Humidity | Pressure | Rain* | Wind** | Luminosity | Snow |
|---|---|---|---|---|---|---|---|
| 1777326573 | 35.56° C | 51% | 1008.2 hPa | 0 mm | - | 432 W/m² | - |
| 1777326271 | 34.44° C | 53% | 1008.1 hPa | 0 mm | - | 368 W/m² | - |
| 1777325968 | 34.44° C | 54% | 1008.2 hPa | 0 mm | - | 466 W/m² | - |
| 1777325666 | 33.89° C | 54% | 1008.1 hPa | 0 mm | - | 453 W/m² | - |
| 1777325364 | 33.33° C | 54% | 1008.3 hPa | 0 mm | - | 181 W/m² | - |
| 1777325062 | 34.44° C | 52% | 1008.2 hPa | 0 mm | - | 496 W/m² | - |
| 1777324757 | 35° C | 54% | 1008.2 hPa | 0 mm | - | 550 W/m² | - |
| 1777324456 | 33.89° C | 54% | 1008.2 hPa | 0 mm | - | 523 W/m² | - |
| 1777324153 | 35° C | 56% | 1008.4 hPa | 0 mm | - | 559 W/m² | - |
| 1777323851 | 34.44° C | 54% | 1008.5 hPa | 0 mm | - | 612 W/m² | - |
| 1777323548 | 33.89° C | 53% | 1008.4 hPa | 0 mm | - | 488 W/m² | - |
| 1777323244 | 35° C | 54% | 1008.5 hPa | 0 mm | - | 234 W/m² | - |
| 1777322941 | 35° C | 53% | 1008.6 hPa | 0 mm | - | 479 W/m² | - |
| 1777322640 | 34.44° C | 55% | 1008.5 hPa | 0 mm | - | 610 W/m² | - |
| 1777322337 | 35.56° C | 52% | 1008.7 hPa | 0 mm | - | 616 W/m² | - |
| 1777322035 | 35° C | 51% | 1008.8 hPa | 0 mm | - | 626 W/m² | - |
| 1777321730 | 35.56° C | 52% | 1008.8 hPa | 0 mm | - | 615 W/m² | - |
| 1777321428 | 34.44° C | 54% | 1009 hPa | 0 mm | - | 615 W/m² | - |
| 1777321124 | 33.89° C | 55% | 1008.7 hPa | 0 mm | - | 599 W/m² | - |
| 1777320822 | 34.44° C | 54% | 1008.9 hPa | 0 mm | - | 255 W/m² | - |
| 1777320519 | 33.89° C | 56% | 1008.9 hPa | 0 mm | - | 718 W/m² | - |
| 1777320216 | 33.33° C | 56% | 1008.9 hPa | 0 mm | - | 254 W/m² | - |
| 1777319913 | 34.44° C | 55% | 1009 hPa | 0 mm | - | 352 W/m² | - |
| 1777319611 | 35° C | 56% | 1008.9 hPa | 0 mm | - | 718 W/m² | - |
| 1777319307 | 35° C | 57% | 1008.9 hPa | 0 mm | - | 704 W/m² | - |
* Rain latest hour (hover to see other rain measurements)
** Current wind speed in m/s (hover to see current wind gust speed)